Вернуться в каталог

CZ-2C R/B

АктивенSSO
NORAD 62078·ROCKET BODY·🇨🇳 China

Запущен Nov 24, 2024 с Jiuquan Satellite Launch Center

Loading…

Ближайшие Пролёты (ближайшие 24 часа)

TLE

СвежийSource: Space-Track

Эпоха: Sep 14, 2026, 00:34 UTC

1 62078U 24218A   26257.02394678  .00004974  00000-0  19607-3 0  9991
2 62078  97.5334 273.0773 0044792  58.7037 301.8575 15.25119540 99999

Отслеживайте CZ-2C R/B в реальном времени с AllMySat

Download on the App Store